Wind_Speed
69 73 80 85 91 94 94 96 96 98 97 91 87 83 79 74 70 66 64 56 45 41 45 47 50 54 55 60 66 72 71 73 77 83 89 93 96 101 102 98 92 87 80 78 74
69 74 81 86 94 98 98 100 102 102 95 89 86 84 80 72 66 66 60 56 47 39 46 48 53 53 53 60 65 70 69 73 82 87 91 98 102 99 100 100 93 89 84 81 78
73 79 85 91 99 102 102 102 102 96 92 90 85 82 72 68 64 65 56 53 44 37 47 49 52 53 54 57 63 67 64 77 85 88 91 98 102 99 100 98 95 93 90 86 82
77 83 90 95 101 105 104 105 98 96 92 89 85 77 71 67 63 60 51 49 41 36 45 43 45 49 53 53 64 65 68 73 86 91 94 96 103 100 99 98 95 96 93 88 84
81 88 92 100 102 109 107 101 98 95 90 84 79 73 69 66 65 53 52 45 39 38 43 44 41 48 51 58 63 63 69 75 85 93 93 94 99 99 99 98 98 95 95 93 88
85 90 96 98 102 104 103 100 99 94 90 80 74 70 66 65 60 50 51 44 36 38 44 44 45 50 53 56 57 63 71 77 83 91 94 94 95 98 99 94 99 99 95 97 94
86 92 94 98 104 101 101 99 97 92 87 78 74 70 68 61 57 51 44 43 37 38 46 48 50 49 52 55 57 65 70 77 82 90 95 95 93 92 99 99 95 99 97 95 90
90 92 96 98 99 98 99 100 93 87 83 78 73 69 67 61 54 48 43 39 38 39 47 47 51 51 54 56 61 66 72 77 81 88 94 96 89 94 97 99 97 97 101 96 92
88 89 94 93 98 100 100 97 95 83 80 78 73 67 60 57 49 42 42 39 40 39 46 50 53 52 58 55 62 68 66 69 78 82 91 95 92 93 96 97 99 96 98 100 94
91 90 91 96 97 101 98 97 96 83 76 74 68 62 57 49 44 36 43 43 40 44 46 50 52 48 49 52 51 57 62 66 75 81 87 88 91 94 93 96 97 97 96 101 101
87 91 95 96 101 99 97 93 89 97 77 70 65 60 54 49 42 39 41 43 40 43 45 46 43 36 47 54 65 70 73 72 79 83 85 87 94 97 95 95 97 99 97 101 103
91 92 98 101 102 102 96 92 85 83 81 71 60 56 50 45 40 40 39 39 38 41 42 39 34 55 58 63 67 68 70 70 76 81 84 87 94 97 97 97 97 95 97 97 103
91 95 96 100 103 98 96 93 88 84 76 68 59 51 46 42 39 38 35 36 35 40 40 36 50 60 59 61 65 67 66 68 69 77 83 87 94 98 98 98 96 96 96 99 98
98 101 101 107 106 100 99 94 86 82 75 67 57 46 42 42 38 38 36 35 36 37 37 37 51 54 57 56 57 62 67 72 73 76 82 85 91 97 96 98 95 93 93 93 94
105 105 102 106 100 100 101 94 88 79 72 62 57 45 40 37 36 35 35 33 32 34 37 46 50 54 52 56 63 67 71 74 75 77 83 86 90 94 98 97 93 87 90 91 90
109 109 112 116 111 101 101 96 89 78 71 65 55 47 39 35 32 32 34 37 33 32 37 46 48 49 53 62 64 69 74 77 79 81 84 82 85 92 94 85 89 90 87 89 91
111 115 115 112 118 105 102 96 88 81 70 63 55 47 40 32 28 29 31 36 37 34 34 43 48 49 55 61 66 71 76 79 81 83 80 84 88 89 93 94 90 87 89 88 89
115 120 114 116 112 106 101 94 88 77 72 61 54 47 39 32 28 27 28 32 35 35 34 39 45 47 51 58 64 69 71 74 78 79 76 86 86 84 91 95 95 89 88 87 88
120 124 114 116 117 111 100 97 86 73 67 61 50 47 40 33 28 25 25 27 31 33 35 36 44 47 51 61 65 69 72 74 78 79 79 81 80 86 93 95 95 90 86 82 79
125 128 124 118 117 113 104 98 86 74 66 58 49 45 42 35 30 25 22 23 27 30 34 36 41 47 54 63 68 70 72 74 79 79 82 82 80 83 89 91 93 89 84 81 78
126 128 118 117 115 105 99 97 84 72 64 56 48 44 41 36 31 27 21 19 23 27 31 38 41 48 55 56 59 64 69 74 78 77 79 79 78 79 86 89 89 87 82 81 78
125 130 127 118 121 104 97 87 80 71 61 54 48 43 39 37 31 27 22 17 19 25 29 36 40 47 53 59 64 65 69 71 72 72 76 75 74 76 84 91 90 89 83 80 78
136 129 127 126 117 105 98 85 75 70 61 53 46 43 38 38 31 26 24 19 18 23 28 34 39 45 53 63 67 68 67 69 67 73 76 74 74 76 84 89 92 90 86 82 78
126 129 125 128 116 107 96 84 73 64 59 52 47 42 38 35 33 26 25 22 19 20 25 32 38 43 48 56 58 60 61 64 70 73 71 72 72 74 81 86 93 92 88 84 80
134 137 125 122 116 103 92 82 71 63 55 50 44 42 37 34 31 28 25 22 19 17 22 30 38 42 46 56 62 65 63 63 67 72 71 69 72 74 81 83 93 94 88 85 80
129 138 130 123 115 100 87 77 69 61 54 47 43 40 37 34 30 29 25 21 18 17 22 30 37 43 44 53 66 70 70 69 69 70 71 70 70 72 75 83 86 93 92 87 83
139 142 129 130 110 96 84 74 67 61 50 48 43 38 37 34 30 29 24 20 18 18 22 30 37 43 49 55 66 69 69 68 68 69 72 70 72 72 73 74 80 85 91 88 84
Wind_Direction
317 319 319 319 316 317 318 321 322 321 318 315 314 310 308 306 301 295 289 288 278 267 261 253 248 245 241 234 230 227 221 215 215 220 220 220 221 220 224 220 221 225 224 224 227
319 320 317 318 316 318 320 322 320 319 316 315 312 309 308 303 297 293 289 283 277 264 258 248 242 238 237 232 230 227 221 217 213 218 219 219 221 220 220 224 222 223 224 225 226
320 319 318 317 317 317 319 321 317 316 315 314 312 309 306 301 297 292 287 283 277 267 260 250 243 236 232 228 229 228 222 218 215 216 218 220 221 221 220 220 223 222 222 224 224
322 319 318 315 317 316 318 318 317 317 317 315 312 310 307 301 294 289 288 286 279 270 261 255 248 242 233 226 226 225 221 218 217 215 218 219 220 221 221 219 220 225 221 223 224
320 319 317 316 317 315 316 316 317 318 317 316 313 309 304 300 292 297 292 283 274 265 259 254 243 239 233 229 226 219 218 216 217 218 218 219 221 218 222 219 219 221 225 222 223
319 318 316 316 315 315 316 316 318 319 318 317 314 311 304 298 299 293 282 281 270 257 253 249 239 233 230 228 226 222 218 215 216 218 217 219 219 219 220 220 220 220 222 223 223
320 318 317 318 316 316 317 318 320 322 320 317 314 311 306 303 298 292 281 275 264 250 246 241 235 231 231 228 224 225 220 216 215 215 218 218 218 219 218 221 220 220 221 222 223
319 317 317 316 316 317 319 320 322 323 320 318 316 313 309 303 301 293 280 269 257 249 243 241 236 228 228 224 219 223 221 218 216 217 216 219 217 219 219 220 220 221 220 222 222
320 320 319 320 319 320 321 323 321 324 321 320 319 315 308 303 299 291 277 266 256 247 241 238 236 230 225 222 219 221 221 219 218 218 218 218 217 219 219 220 220 221 221 220 222
322 323 324 321 324 324 326 326 324 324 323 321 321 319 311 301 294 285 273 268 256 246 244 238 237 233 230 227 223 224 225 220 218 218 219 218 217 221 221 220 221 220 221 220 222
327 327 327 328 327 328 327 328 330 328 328 323 323 321 312 301 293 279 271 269 262 249 243 239 239 234 228 220 217 215 217 215 215 216 219 216 216 218 221 220 222 221 220 220 222
331 337 333 333 331 330 330 329 331 327 328 327 325 321 312 303 295 284 275 268 258 252 245 239 228 225 220 217 216 216 218 218 215 217 216 216 217 218 218 221 220 221 222 222 223
335 338 337 336 333 333 331 332 332 330 330 327 326 321 313 305 297 289 278 267 256 251 245 229 223 226 220 217 217 215 216 217 219 216 218 217 217 218 218 220 221 220 221 223 224
344 341 342 343 337 335 334 334 332 332 333 329 325 318 312 306 300 291 279 268 255 248 246 230 228 228 224 218 218 216 215 216 213 216 217 219 218 217 218 220 221 222 222 225 226
346 347 342 340 335 335 333 334 333 336 335 332 327 321 312 307 297 289 281 270 256 244 237 234 228 226 224 219 214 214 213 214 213 213 216 218 216 217 218 218 221 223 225 224 226
349 350 345 342 337 333 334 336 333 338 337 332 330 323 317 311 300 288 278 274 262 243 232 234 231 226 219 222 216 214 213 213 214 211 213 215 217 219 219 219 221 222 225 226 227
349 347 346 338 335 335 336 337 335 337 338 333 332 324 320 317 301 283 273 270 267 256 235 232 231 222 219 220 220 214 215 214 214 212 210 214 214 211 217 217 220 220 223 225 227
348 345 345 341 335 333 335 337 336 338 335 333 331 326 325 319 303 285 274 266 263 257 244 230 228 220 219 218 221 221 217 218 218 214 211 213 213 208 213 217 219 221 221 225 226
349 347 345 340 338 336 336 337 336 338 335 332 331 329 326 322 307 291 278 266 259 252 244 231 224 220 214 214 215 218 218 216 216 215 211 215 212 210 211 215 219 222 223 224 226
347 345 344 341 339 337 337 336 337 336 335 333 332 331 328 324 312 299 283 271 260 251 241 231 225 218 215 215 215 213 213 215 216 216 213 211 211 209 212 215 217 218 223 224 225
347 345 342 340 336 337 338 337 336 335 334 333 333 333 329 325 315 305 289 277 264 249 237 227 222 220 219 216 217 218 217 215 216 215 216 213 212 207 210 210 216 218 219 224 225
349 345 341 337 337 335 336 337 337 335 334 332 333 333 330 323 316 309 298 288 268 250 234 225 219 217 216 212 213 212 214 215 219 218 216 214 207 209 211 208 213 217 219 223 225
345 346 340 339 334 334 335 335 338 335 333 333 334 333 330 321 318 312 303 294 271 249 234 224 215 216 214 212 211 211 213 215 213 217 216 216 210 204 211 210 210 215 219 221 225
346 342 340 342 334 336 335 334 336 335 333 333 332 332 328 321 318 314 307 297 279 252 235 223 214 212 213 209 212 212 212 213 214 217 217 215 213 202 209 210 209 211 215 219 223
343 344 340 340 336 336 334 334 334 334 334 333 333 330 326 320 318 314 308 296 281 255 231 220 212 207 208 209 205 208 207 212 215 219 217 215 214 208 205 210 210 210 213 214 219
345 343 337 338 334 334 334 335 334 334 333 334 333 328 325 321 319 315 307 294 278 255 222 216 213 206 205 206 205 208 207 209 211 215 217 216 212 213 208 209 212 211 213 215 215
341 339 339 339 336 333 334 334 334 333 335 333 332 328 323 322 321 316 305 292 276 253 222 213 209 207 202 205 208 210 208 210 211 213 216 215 216 212 209 209 212 212 213 215 215
Height
10722 10713 10699 10685 10671 10658 10647 10636 10627 10616 10608 10599 10587 10576 10570 10563 10556 10552 10546 10549 10553 10556 10553 10553 10556 10560 10567 10576 10583 10592 10602 10626 10638 10644 10658 10661 10669 10678 10693 10711 10727 10737 10751 10759 10767
10711 10698 10684 10673 10655 10643 10632 10621 10609 10600 10589 10580 10568 10557 10548 10542 10535 10529 10530 10528 10532 10538 10533 10534 10534 10541 10550 10560 10566 10575 10592 10612 10616 10622 10632 10641 10648 10665 10680 10697 10716 10728 10739 10748 10755
10700 10687 10673 10658 10641 10626 10617 10607 10594 10582 10571 10560 10547 10535 10529 10520 10514 10507 10511 10509 10513 10519 10512 10517 10518 10526 10534 10542 10553 10564 10586 10588 10597 10604 10612 10624 10635 10650 10665 10684 10703 10713 10720 10732 10743
10690 10677 10661 10643 10630 10614 10602 10588 10575 10562 10551 10538 10523 10513 10506 10499 10493 10487 10493 10492 10495 10500 10494 10499 10507 10514 10520 10531 10534 10547 10559 10572 10579 10584 10594 10606 10619 10639 10654 10673 10686 10697 10707 10720 10731
10678 10665 10651 10635 10618 10599 10584 10570 10558 10544 10531 10517 10503 10493 10484 10477 10467 10480 10471 10474 10477 10480 10477 10481 10491 10496 10505 10510 10516 10531 10540 10550 10559 10569 10578 10591 10605 10629 10640 10659 10672 10684 10696 10706 10716
10668 10652 10636 10620 10602 10584 10569 10553 10538 10524 10509 10496 10485 10474 10464 10458 10455 10457 10450 10454 10457 10459 10458 10463 10471 10477 10484 10495 10509 10518 10520 10530 10539 10555 10565 10578 10592 10613 10628 10643 10657 10669 10681 10691 10702
10654 10638 10620 10606 10584 10566 10550 10533 10519 10502 10486 10473 10463 10452 10441 10440 10432 10434 10434 10433 10437 10438 10439 10444 10450 10462 10472 10481 10493 10499 10506 10513 10523 10535 10550 10562 10578 10602 10613 10626 10641 10654 10666 10680 10694
10642 10625 10608 10589 10571 10551 10532 10512 10499 10486 10466 10453 10444 10433 10420 10417 10416 10414 10413 10413 10417 10419 10421 10428 10435 10446 10454 10463 10471 10480 10486 10497 10510 10520 10532 10545 10575 10582 10595 10611 10626 10638 10650 10666 10680
10625 10608 10593 10574 10554 10534 10515 10491 10477 10473 10450 10433 10423 10411 10402 10396 10397 10396 10391 10394 10399 10402 10405 10411 10418 10428 10435 10451 10456 10461 10481 10496 10502 10512 10520 10533 10557 10566 10580 10596 10610 10623 10636 10651 10663
10609 10594 10575 10558 10539 10518 10500 10478 10449 10454 10438 10417 10404 10393 10381 10379 10377 10377 10373 10375 10382 10385 10389 10397 10403 10418 10432 10442 10457 10464 10470 10481 10490 10499 10507 10528 10545 10549 10566 10581 10593 10608 10622 10636 10647
10590 10576 10558 10540 10519 10503 10486 10469 10446 10400 10421 10403 10386 10376 10364 10361 10362 10359 10357 10358 10364 10369 10374 10384 10397 10416 10415 10424 10422 10428 10439 10455 10467 10476 10492 10511 10521 10532 10548 10563 10577 10592 10605 10620 10629
10575 10557 10540 10521 10502 10485 10469 10451 10437 10419 10397 10384 10371 10358 10351 10345 10347 10343 10343 10344 10350 10352 10361 10376 10392 10376 10385 10395 10405 10417 10431 10444 10452 10463 10475 10489 10506 10517 10532 10546 10562 10579 10595 10607 10615
10561 10545 10527 10506 10486 10469 10451 10433 10416 10399 10386 10372 10357 10345 10338 10332 10332 10331 10331 10332 10338 10339 10346 10362 10359 10356 10369 10379 10392 10408 10423 10433 10444 10453 10461 10473 10484 10500 10519 10532 10547 10562 10577 10588 10601
10546 10530 10513 10490 10472 10451 10431 10417 10400 10384 10371 10358 10345 10335 10324 10319 10318 10318 10318 10320 10324 10328 10335 10345 10343 10348 10359 10375 10388 10399 10404 10412 10423 10433 10447 10458 10472 10488 10505 10520 10536 10553 10569 10583 10599
10533 10514 10496 10477 10457 10438 10419 10401 10385 10370 10355 10346 10330 10323 10313 10309 10305 10303 10301 10305 10311 10316 10322 10321 10327 10335 10351 10363 10367 10378 10385 10396 10405 10415 10426 10440 10453 10476 10486 10503 10528 10547 10557 10569 10582
10519 10502 10483 10464 10443 10426 10406 10387 10370 10356 10341 10327 10319 10308 10305 10297 10295 10292 10288 10288 10294 10302 10306 10307 10314 10326 10338 10339 10351 10360 10368 10378 10387 10396 10406 10428 10445 10459 10480 10514 10517 10528 10542 10554 10568
10503 10489 10470 10448 10427 10410 10392 10376 10357 10336 10329 10314 10306 10298 10292 10288 10284 10279 10276 10275 10278 10286 10293 10295 10299 10311 10318 10327 10335 10343 10350 10361 10371 10378 10404 10412 10421 10453 10469 10483 10495 10510 10523 10536 10548
10492 10476 10459 10439 10415 10396 10381 10364 10346 10325 10311 10304 10292 10285 10280 10277 10272 10267 10265 10264 10265 10270 10277 10282 10286 10296 10307 10316 10323 10334 10343 10355 10365 10376 10398 10396 10413 10445 10454 10467 10480 10493 10507 10520 10535
10480 10465 10444 10424 10403 10383 10368 10353 10335 10318 10304 10291 10281 10272 10268 10266 10260 10257 10254 10253 10254 10256 10261 10268 10272 10281 10291 10294 10304 10315 10326 10339 10349 10363 10377 10388 10411 10428 10437 10453 10467 10481 10496 10513 10526
10471 10450 10431 10411 10389 10370 10355 10340 10324 10305 10292 10282 10270 10260 10255 10254 10249 10246 10244 10242 10242 10245 10248 10253 10260 10267 10272 10277 10286 10296 10310 10321 10331 10348 10361 10375 10396 10415 10429 10441 10452 10469 10483 10499 10514
10455 10439 10419 10397 10378 10356 10337 10323 10310 10295 10282 10270 10260 10251 10243 10242 10239 10235 10233 10232 10231 10232 10235 10239 10245 10252 10259 10274 10286 10295 10302 10310 10320 10337 10352 10368 10388 10405 10416 10430 10444 10460 10475 10488 10503
10443 10429 10408 10383 10362 10345 10326 10308 10294 10282 10272 10259 10249 10242 10234 10230 10230 10225 10222 10222 10221 10221 10224 10228 10233 10240 10250 10261 10269 10279 10289 10301 10314 10330 10342 10358 10375 10394 10403 10417 10433 10447 10463 10476 10488
10437 10414 10391 10370 10349 10330 10315 10300 10283 10268 10260 10249 10239 10231 10226 10218 10219 10215 10211 10212 10211 10212 10214 10218 10222 10228 10237 10243 10254 10266 10280 10291 10306 10315 10329 10346 10364 10379 10389 10404 10419 10433 10451 10465 10477
10418 10401 10380 10357 10333 10317 10301 10284 10270 10260 10248 10239 10228 10222 10217 10211 10207 10206 10203 10201 10202 10203 10205 10208 10212 10218 10231 10244 10256 10267 10276 10286 10293 10303 10320 10335 10350 10368 10377 10391 10406 10419 10436 10452 10466
10399 10382 10362 10345 10323 10305 10289 10275 10257 10246 10239 10230 10221 10212 10207 10204 10199 10197 10194 10190 10192 10196 10197 10200 10203 10209 10220 10231 10240 10250 10263 10275 10287 10293 10307 10323 10338 10352 10365 10376 10392 10407 10423 10439 10454
10380 10364 10350 10330 10308 10293 10277 10265 10248 10238 10226 10221 10213 10204 10198 10193 10191 10187 10185 10182 10182 10186 10189 10191 10195 10200 10211 10222 10228 10234 10246 10257 10269 10283 10294 10309 10324 10338 10355 10366 10379 10397 10413 10427 10442
10370 10352 10331 10315 10294 10281 10263 10252 10240 10225 10219 10209 10203 10197 10189 10184 10182 10178 10175 10174 10174 10177 10181 10183 10186 10192 10200 10211 10217 10225 10239 10251 10263 10272 10282 10298 10310 10323 10340 10358 10371 10387 10402 10416 10431